This is the latest recevied weather packets stored in our database for station/object N2PPN. If no packets are shown the sender has not sent any weather packets the latest 10 day(s).
| Time | Temp. | Humidity | Pressure | Rain* | Wind** | Luminosity | Snow |
|---|---|---|---|---|---|---|---|
| 1777590159 | 12.78° C | 92% | 1010.6 hPa | 0 mm | - | 24 W/m² | - |
| 1777589855 | 12.78° C | 92% | 1010.6 hPa | 0 mm | - | 22 W/m² | - |
| 1777589551 | 12.78° C | 91% | 1010.7 hPa | 0 mm | - | 25 W/m² | - |
| 1777589249 | 12.78° C | 91% | 1010.8 hPa | 0 mm | - | 24 W/m² | - |
| 1777588947 | 12.78° C | 90% | 1010.6 hPa | 0 mm | - | 25 W/m² | - |
| 1777588642 | 13.33° C | 90% | 1010.4 hPa | 0 mm | - | 27 W/m² | - |
| 1777588338 | 13.33° C | 89% | 1010.7 hPa | 0 mm | - | 30 W/m² | - |
| 1777588034 | 13.33° C | 89% | 1010.5 hPa | 0 mm | - | 35 W/m² | - |
| 1777587729 | 13.33° C | 89% | 1010.5 hPa | 0 mm | - | 41 W/m² | - |
| 1777587424 | 13.33° C | 88% | 1010.5 hPa | 0 mm | - | 45 W/m² | - |
| 1777587120 | 13.89° C | 87% | 1010.6 hPa | 0 mm | - | 58 W/m² | - |
| 1777586816 | 13.89° C | 86% | 1010.4 hPa | 0 mm | - | 85 W/m² | - |
| 1777586512 | 13.89° C | 87% | 1010.3 hPa | 0 mm | - | 113 W/m² | - |
| 1777586208 | 13.89° C | 87% | 1010.3 hPa | 0 mm | - | 120 W/m² | - |
| 1777585906 | 13.33° C | 88% | 1010.1 hPa | 0 mm | - | 85 W/m² | - |
| 1777585606 | 13.33° C | 87% | 1010.3 hPa | 0 mm | - | 76 W/m² | - |
| 1777585301 | 13.33° C | 87% | 1010.3 hPa | 0 mm | - | 64 W/m² | - |
| 1777584996 | 13.33° C | 88% | 1010.3 hPa | 0 mm | - | 38 W/m² | - |
| 1777584693 | 13.33° C | 87% | 1010.2 hPa | 0 mm | - | 11 W/m² | - |
| 1777584390 | 13.33° C | 87% | 1010 hPa | 0 mm | - | 24 W/m² | - |
| 1777584086 | 13.89° C | 87% | 1009.9 hPa | 0 mm | - | 50 W/m² | - |
| 1777583780 | 13.89° C | 87% | 1009.9 hPa | 0 mm | - | 43 W/m² | - |
| 1777583475 | 13.89° C | 86% | 1009.8 hPa | 0 mm | - | 52 W/m² | - |
| 1777583175 | 13.89° C | 85% | 1009.8 hPa | 0 mm | - | 55 W/m² | - |
| 1777582871 | 15.56° C | 82% | 1010 hPa | 0 mm | - | 85 W/m² | - |
* Rain latest hour (hover to see other rain measurements)
** Current wind speed in m/s (hover to see current wind gust speed)